Powrót do katalogu

DCS-1

AktywnyŁącznośćSSO
NORAD 67263·PAYLOAD·🇷🇺 Russia

Wystrzelony Dec 28, 2025 z Vostochny Cosmodrome

Loading…

Następne Przeloty (najbliższe 24 godziny)

TLE

ŚwieżeSource: Space-Track

Epoka: Sep 14, 2026, 12:54 UTC

1 67263U 25313R   26257.53775946  .00006919  00000-0  28135-3 0  9993
2 67263  97.3878 331.0263 0015099  53.6633 306.5996 15.24747945 39565

Śledź DCS-1 w czasie rzeczywistym z AllMySat

Download on the App Store